Total_Precipitation_Accumulation
1.18 1.28 1.62 1.52 1.53 1.66 1.90 2.08 2.31 2.37 2.08 1.93 1.93 1.88 1.99 2.38 2.50 2.43 2.40 2.57 3.02 3.58 3.97 4.08 4.07 3.95 3.95 3.81 3.14 2.63 2.34 2.31 2.30 2.31 2.21 2.12 2.18 2.39 2.49 2.61 2.64 1.96 1.83
1.06 1.26 1.46 1.42 1.43 1.62 1.86 2.04 2.18 2.24 2.07 1.94 1.83 1.84 2.06 2.38 2.42 2.32 2.31 2.52 2.82 3.28 3.54 3.46 3.38 3.25 3.12 2.91 2.58 2.41 2.38 2.44 2.59 2.65 2.73 2.52 2.57 2.64 2.54 2.53 2.63 1.94 1.86
1.08 1.13 1.20 1.34 1.26 1.42 1.62 1.71 1.85 2.07 2.14 2.07 1.79 1.80 2.03 2.29 2.47 2.56 2.56 2.60 2.78 3.14 3.36 3.25 3.00 2.88 2.72 2.60 2.37 2.31 2.32 2.55 2.90 3.14 3.43 2.56 2.09 2.57 2.50 2.45 2.19 1.79 1.74
0.81 0.85 1.01 1.21 1.24 1.28 1.43 1.51 1.64 1.81 1.93 1.91 1.75 1.71 1.94 2.23 2.41 2.58 2.65 2.61 2.74 3.02 3.35 3.26 3.05 2.90 2.72 2.48 2.34 2.35 2.43 2.70 2.99 3.42 3.24 2.27 1.61 1.98 2.19 2.13 1.85 1.56 1.52
0.71 0.80 1.09 1.22 1.20 1.20 1.27 1.38 1.52 1.61 1.65 1.70 1.68 1.78 2.01 2.26 2.47 2.54 2.51 2.53 2.62 2.83 3.07 3.17 2.88 2.52 2.38 2.31 2.38 2.50 2.63 2.91 3.18 3.11 2.40 2.36 2.23 2.12 1.94 1.84 1.73 1.52 1.42
0.78 0.85 1.07 1.23 1.14 1.17 1.22 1.25 1.38 1.48 1.57 1.71 1.74 1.83 2.14 2.32 2.41 2.41 2.21 2.19 2.35 2.50 2.69 2.77 2.51 2.19 2.17 2.30 2.47 2.59 2.79 3.04 3.02 2.30 1.98 2.05 1.89 1.99 1.94 1.85 1.68 1.52 1.39
0.69 0.86 1.05 1.13 1.02 1.02 1.04 1.15 1.35 1.48 1.61 1.77 1.81 1.93 2.17 2.35 2.42 2.39 2.20 2.33 2.34 2.46 2.62 2.49 2.33 2.26 2.44 2.51 2.57 2.60 2.86 3.01 2.41 1.95 2.03 2.18 1.86 1.89 2.14 2.11 1.81 1.53 1.26
0.64 0.81 1.02 1.07 0.99 0.99 1.09 1.22 1.35 1.48 1.58 1.77 1.81 1.85 2.05 2.35 2.39 2.23 2.20 2.33 2.24 2.40 2.49 2.34 2.17 2.15 2.34 2.51 2.51 2.59 2.74 2.63 1.93 1.64 1.76 1.92 1.67 1.85 2.25 2.21 1.98 1.77 1.44
0.69 0.82 0.96 1.03 1.01 1.02 1.14 1.36 1.50 1.56 1.67 1.80 1.77 1.79 1.99 2.22 2.33 2.25 2.22 2.28 2.28 2.35 2.19 2.08 2.12 2.05 2.11 2.38 2.44 2.58 2.64 2.55 1.93 1.72 1.52 1.68 1.65 1.93 2.25 2.14 1.92 1.84 1.58
0.89 0.96 0.96 1.02 0.98 0.96 1.10 1.49 1.72 1.78 1.85 1.90 1.91 1.94 2.16 2.34 2.39 2.30 2.12 2.20 2.23 2.15 2.06 2.07 2.08 2.07 2.14 2.39 2.64 2.79 2.71 2.25 1.79 1.69 1.65 1.57 1.75 2.12 2.33 2.19 2.05 1.98 1.80
1.13 1.22 1.14 1.18 1.06 1.11 1.18 1.47 1.78 1.88 2.01 2.18 2.23 2.31 2.59 2.76 2.57 2.60 2.27 2.39 2.34 2.26 2.28 2.36 2.35 2.36 2.32 2.54 2.88 2.92 2.54 2.13 2.15 1.85 1.71 1.67 1.99 2.36 2.46 2.43 2.33 2.24 2.12
1.35 1.20 1.22 1.33 1.27 1.39 1.40 1.63 2.15 2.18 2.33 2.57 2.65 2.56 2.83 2.92 2.93 2.50 2.61 2.91 2.93 2.92 2.91 3.01 3.10 2.94 2.53 2.43 2.92 3.22 2.58 2.38 2.27 1.95 1.75 1.88 2.19 2.51 2.57 2.59 2.37 2.27 2.24
1.44 1.30 1.43 1.57 1.70 1.77 2.04 1.84 2.02 2.41 2.66 2.78 2.92 3.02 3.11 2.82 2.71 2.59 2.81 3.17 3.28 3.24 3.15 3.25 3.44 3.07 2.87 2.93 3.12 3.16 2.79 2.65 2.38 2.03 2.18 2.36 2.55 2.87 2.95 2.76 2.50 2.34 2.19
1.98 1.96 1.93 2.12 2.35 2.37 2.15 2.12 2.01 2.12 2.34 2.71 3.00 2.89 2.98 3.17 3.15 2.94 3.00 3.04 3.12 3.24 3.46 3.28 3.39 3.41 3.35 3.12 3.00 3.11 2.93 2.79 2.62 2.58 2.81 2.86 2.84 3.12 3.30 3.03 2.74 2.54 2.35
2.76 2.90 2.87 2.86 2.81 2.86 2.85 2.71 2.29 2.44 2.40 2.50 2.93 2.96 2.94 3.19 3.31 3.22 3.13 3.23 2.90 2.95 3.29 3.55 3.37 3.46 3.56 3.38 3.11 3.03 3.06 2.91 2.88 2.78 2.93 3.10 2.87 2.89 3.14 3.14 3.01 2.80 2.68
3.51 4.01 3.80 3.64 3.40 3.29 3.32 3.27 3.20 2.89 2.78 2.60 2.88 3.00 3.10 3.34 3.46 3.41 3.25 3.21 2.86 2.77 3.03 3.31 3.30 3.51 3.50 3.44 3.08 2.86 2.81 2.98 3.00 2.79 2.88 3.17 3.05 2.66 2.71 3.03 3.27 3.29 3.11
4.14 4.75 4.54 4.42 4.40 4.18 4.07 3.72 3.32 3.10 2.91 3.10 3.28 3.40 3.43 3.46 3.62 3.57 3.42 3.18 3.03 3.08 3.19 3.20 3.29 3.64 3.42 3.28 3.10 3.02 2.92 2.95 2.83 2.75 2.80 3.00 2.71 2.51 2.44 2.57 2.93 3.25 3.51
4.32 4.78 5.16 4.83 5.23 5.15 4.90 4.43 3.91 3.69 3.68 3.64 3.56 3.69 3.47 3.39 3.42 3.62 3.32 3.02 3.16 3.31 3.43 3.42 3.42 3.61 3.66 3.73 3.61 3.37 3.07 2.97 2.44 2.38 2.46 2.54 2.64 2.25 2.37 2.59 2.72 2.88 3.43
4.59 5.14 5.64 5.86 5.96 5.55 5.21 4.81 4.53 4.30 4.08 3.68 3.29 3.21 3.08 2.82 2.69 2.86 2.77 2.72 2.76 2.94 2.90 2.70 3.09 3.33 3.55 3.73 3.46 3.27 2.89 2.76 2.51 2.35 2.40 2.15 2.24 2.28 2.33 2.42 2.63 2.67 3.18
4.70 5.55 6.01 6.19 5.82 5.42 5.05 4.60 4.43 4.13 3.84 3.50 3.09 2.81 2.62 2.54 2.31 2.45 2.31 2.29 2.44 2.69 2.77 2.86 3.09 3.02 2.94 3.09 2.77 2.77 2.69 2.47 2.46 2.42 2.22 2.12 2.06 2.04 2.20 2.39 2.65 2.31 2.81
4.77 5.73 6.15 6.00 5.41 4.93 4.49 4.03 3.72 3.44 3.25 3.13 2.81 2.45 2.39 2.36 2.32 2.53 2.28 2.50 2.49 2.59 2.62 2.56 2.68 2.64 2.38 2.51 2.93 2.86 2.54 2.32 2.36 2.26 2.15 2.22 1.99 2.02 2.25 2.50 2.72 2.78 2.52
4.12 4.89 5.26 4.98 4.34 3.70 3.45 3.36 3.24 3.19 2.87 2.67 2.58 2.50 2.21 2.21 2.23 2.25 2.38 2.18 2.23 2.39 2.31 2.30 2.59 2.56 2.26 2.33 2.76 2.98 2.83 2.86 2.62 2.01 1.98 2.12 2.10 2.16 2.26 2.31 2.65 2.92 2.77
3.57 3.57 3.72 3.65 3.19 2.86 2.76 2.77 2.78 2.93 2.74 2.47 2.38 2.29 2.05 1.96 1.90 1.99 2.01 2.07 2.21 2.14 2.22 2.27 2.32 2.43 2.38 2.21 2.26 2.82 2.80 2.70 2.54 2.27 1.96 1.93 2.11 2.34 2.33 2.41 2.42 2.53 2.61
2.68 2.49 2.49 2.61 2.48 2.45 2.36 2.40 2.31 2.18 2.19 2.10 2.08 2.03 1.98 1.86 1.77 1.67 1.74 1.86 2.02 2.01 2.26 2.02 2.07 2.30 2.39 2.15 2.16 2.26 2.30 2.39 2.53 2.35 2.00 1.82 1.89 2.01 2.17 2.15 2.31 2.48 2.55
1.79 1.82 2.00 2.29 2.36 2.27 2.22 2.34 2.36 2.07 1.94 1.86 1.90 2.00 1.94 1.83 1.70 1.54 1.62 1.81 1.93 1.96 2.04 2.03 2.27 2.23 2.15 2.12 2.11 2.18 2.25 2.29 2.19 2.26 2.18 1.93 1.83 1.71 1.84 2.04 2.27 2.49 2.47
1.22 1.34 1.57 2.02 2.24 2.11 2.07 2.11 2.07 2.01 1.98 1.89 1.84 1.87 1.83 1.77 1.76 1.74 1.68 1.79 1.81 1.83 1.86 1.93 2.10 2.11 2.09 2.15 2.03 1.97 2.16 2.26 2.26 2.34 2.19 1.96 1.82 1.60 1.61 1.77 2.13 2.46 2.56